Regional Weather Roundup
Issued by NWS

Home | Current Version | Previous Version | Graphics & Text | Print | Product List | Glossary Off
Versions: 1 2 3 4 5 6 7 8 9 10 11 12 13 14 15 16 17 18 19 20 21 22 23 24 25 26 27 28 29 30 31 32 33 34 35 36 37 38 39 40 41 42 43 44 45 46 47 48 49 50

895
ASUS43 KMKX 102200
RWRWI

WISCONSIN REGIONAL WEATHER ROUNDUP
NATIONAL WEATHER SERVICE MILWAUKEE/SULLIVAN WI
400 PM CST WED FEB 10 2016

NOTE: "FAIR" INDICATES FEW OR NO CLOUDS BELOW 12,000 FEET WITH NO
SIGNIFICANT WEATHER AND/OR OBSTRUCTIONS TO VISIBILITY.

WIZ001-002-006>008-014>016-023>028-102300-
NORTHWEST WISCONSIN

CITY           SKY/WX    TMP DP  RH WIND       PRES   REMARKS
SUPERIOR ARPT  SUNNY     12  -7  41 SW3       30.16R
ASHLAND        SUNNY      9  -2  61 N5        30.14R WCI   1
HAYWARD        SUNNY     11  -4  51 N8        30.09R WCI  -1
SIREN          MOSUNNY    9  -4  54 N5        30.13R WCI   1
CUMBERLAND     MOSUNNY    9  -4  56 N9        30.08R WCI  -5
RICE LAKE      MOSUNNY   10  -3  57 NW5       30.11R WCI   1
CHETEK         MOSUNNY   10  -2  58 NW3       30.09R
LADYSMITH      MOSUNNY   12  -2  52 NW8       30.08R WCI   1
EAU CLAIRE     NOT AVBL
MENOMONIE      MOSUNNY   17  -4  40 N5        30.11R WCI   9
NEW RICHMOND   SUNNY      9  -5  52 CALM      30.12R
OSCEOLA        SUNNY     11  -3  53 NW7       30.16R WCI   0
$$

WIZ003>005-009-010-017-018-102300-
NORTH CENTRAL WISCONSIN

CITY           SKY/WX    TMP DP  RH WIND       PRES   REMARKS
MANITOWISH WTR CLOUDY     7  -3  65 N7        30.00R WCI  -5
ARBOR VITAE    CLOUDY    10  -1  61 N9G17     30.00R WCI  -3
WOODRUFF       CLOUDY    10  -1  61 N9G17     30.00R WCI  -3
RHINELANDER    CLOUDY    10  -4  53 NW12G20   29.99R WCI  -5
EAGLE RIVER    MOSUNNY    7  -5  56 N9        29.98R WCI  -6
LAND O LAKES   CLOUDY     7  -3  64 N10G16    29.99R WCI  -8
PHILLIPS       CLOUDY     8  -3  61 N6        30.02R WCI  -2
TOMAHAWK       MOSUNNY    9  -4  54 N8        30.01R WCI  -3
MEDFORD        MOSUNNY   10  -3  53 N12       30.01R WCI  -4
MERRILL        MOSUNNY   13  -4  46 N7        30.02R WCI   2
$$

WIZ029-030-035-036-043>047-102300-
CENTRAL WISCONSIN

CITY           SKY/WX    TMP DP  RH WIND       PRES   REMARKS
WAUSAU         SUNNY     14  -4  44 N8        30.01R WCI   3
MOSINEE        NOT AVBL
MARSHFIELD     SUNNY     11  -4  51 NW13      30.02R WCI  -4
STEVENS POINT  SUNNY     11  -4  49 NW8       30.02R WCI  -1
WAUPACA        SUNNY     18  -5  36 NW9       30.02S WCI   6
WAUTOMA        NOT AVBL
WISC RAPIDS    SUNNY     10  -4  53 NW12      30.07R WCI  -5
CAMP DOUGLAS   NOT AVBL
$$

WIZ011>013-019>022-031-037>040-048>050-102300-
NORTHEAST WISCONSIN

CITY           SKY/WX    TMP DP  RH WIND       PRES   REMARKS
ANTIGO         MOSUNNY    9  -4  55 N10       29.98R WCI  -5
SHAWANO        SUNNY     17  -6  35 N12       30.02R WCI   4
OCONTO         SUNNY     15  -6  40 NW7       30.03R WCI   5
STURGEON BAY   SUNNY     12  -6  44 N17       30.03R WCI  -5
GREEN BAY      SUNNY     14  -5  42 NW9       30.03R WCI   2
MANITOWOC      NOT AVBL
APPLETON       MOSUNNY   12  -8  40 W9        30.00R WCI   0
CLINTONVILLE   SUNNY     16  -6  38 NW9       30.02R WCI   4
OSHKOSH        SUNNY     14  -4  44 N13       30.03R WCI   0
$$

WIZ032>034-041-042-053>061-102300-
SOUTHWEST WISCONSIN

CITY           SKY/WX    TMP DP  RH WIND       PRES   REMARKS
LA CROSSE      SUNNY     10  -3  55 NW10      30.11R WCI  -4
SPARTA         SUNNY     14  -1  51 W6        30.08R WCI   5
VIROQUA        SUNNY     10  -2  57 NW6       30.03R WCI   1
BOSCOBEL       MOSUNNY   14  -3  47 N8        30.09R WCI   3
PRAIRIE DU CHI MOSUNNY   15  -2  45 NW5       30.08R WCI   8
PLATTEVILLE    MOSUNNY   15   2  54 W5        30.03S WCI   8
$$

WIZ056-057-062-063-064-067-068-102300-
SOUTH CENTRAL WISCONSIN

CITY           SKY/WX    TMP DP  RH WIND       PRES   REMARKS
REEDSBURG      SUNNY     13  -2  51 NW7       30.04R WCI   3
BARABOO/DELLS  SUNNY     15  -3  46 NW9       30.03R WCI   3
LONE ROCK      NOT AVBL
MINERAL POINT  SUNNY     18  -2  41 NW8       30.02R WCI   7
MADISON        MOSUNNY   14  -2  49 VRB7      30.04R WCI   4
MIDDLETON      SUNNY     16   0  50 NW6       30.04R WCI   7
WATERTOWN      CLOUDY    13   1  57 N10G16    30.03R WCI   0
MONROE         SUNNY     16   0  48 NW5       30.02R WCI   9
JANESVILLE     MOSUNNY   16   1  53 NW12G17   30.04R WCI   3
$$

WIZ051-052-058>065-066-070>072-102300-
SOUTHEAST WISCONSIN

CITY           SKY/WX    TMP DP  RH WIND       PRES   REMARKS
MILWAUKEE      PTSUNNY   13  -3  49 NW12      30.04R WCI  -1
WAUKESHA       CLOUDY    10  -2  56 NW12      30.03R WCI  -4
MILWAUKEE/TIMM MOSUNNY   12  -4  48 NW13G18   30.04R WCI  -3
RACINE         PTSUNNY   14  -2  49 NW10      30.05R WCI   1
BURLINGTON     CLOUDY    12   0  59 N10       30.04R WCI  -2
KENOSHA        CLOUDY    14   1  56 NW10      30.04R WCI   1
FOND DU LAC    SUNNY     13  -2  51 NW7       30.03R WCI   3
SHEBOYGAN      SUNNY     12  -4  48 NW12      30.03R WCI  -2
WEST BEND      MOSUNNY   12  -4  48 CALM      30.02R
JUNEAU         PTSUNNY   11  -2  55 N7        30.03R WCI   1
$$

LSZ147-162-102300-
LAKE SUPERIOR

STATION/POSITION TIME  TEMP    WIND        PRES    WAVE
                       AIR SEA DIR/SP/G            HT/PER
                 (UTC) (F)     (DEG/KT/KT) (MB)    (FT/S)
DEVILS ISLAND    2100    8     350/  7/ 10 1022.1R
SAXON HARBOR     2100   11                 1019.6R
$$

LMZ867-665-643>646-102300-
LAKE MICHIGAN

STATION/POSITION TIME  TEMP    WIND        PRES    WAVE
                       AIR SEA DIR/SP/G            HT/PER
                 (UTC) (F)     (DEG/KT/KT) (MB)    (FT/S)
CHAMBERS ISLAND  2100   15     310/ 16/ 22 1015.9R
ALGOMA LAKESHORE 2011          340/ 11/ 15   N/A
KEWAUNEE LAKESHO 2100   14     320/  8/ 13 1015.2R
SHEBOYGAN LAKESH 2100   12     340/ 14/ 16 1018.2R
PORT WASHINGTON  2100   13     340/  8/ 14 1017.6
MILWAUKEE LAKESH 2110   14     340/  7/ 11   N/A
KENOSHA   LAKESH 2100   14     290/ 11/ 14 1016.6R
$$

TC  - TEMPERATURE IN CELSIUS
VSB - VISIBILITY IN STATUTE MILES
WCI - WIND CHILL INDEX
HX  - HEAT INDEX





USA.gov is the U.S. government's official web portal to all federal, state and local government web resources and services.